x

Tanner Bank - 121nm West Of San Diego, Ca (46047) Wave Buoy

6:50am - Sun 24th Jul 2016 All times are PDT. -7 hours from GMT.

  • Sig Wave height 7.2ft
  • Swell Direction
  • Peak Period 9s
  • Average Period 7s
  • Wind
    4mph, 7mph gusts
  • Sea Temp 63°f
  • 空気 Temp 62°f
  • Sea Pressure 1009.7mb
  • Tanner Bank - 121nm West Of San Diego, Ca
  • Tanner Bank - 121nm West Of San Diego, Ca

More Historic Weather Station data

Upgrade to MSW Pro to gain access to the past 30 days of data for over 8000 Wavebouys and Weather Stations around the globe.

Join Pro

Comparision Forecast

View Surf forecast
   
Sun 07/24 6:50am 7ft 9s 7s 4 7 mph 1009.7mb 63f 62f
5:50am 6.5ft 9s 7s 4 7 mph 1009.3mb 63f 63f
4:50am 7.5ft 10s 7s 2 4 mph 1008.8mb 63f 63f
3:50am 7.5ft 9s 7s 4 7 mph 1008.7mb 63f 63f
2:50am 7ft 9s 7s 4
mph
1008.7mb 63f 63f
1:50am 8ft 9s 7s 7 9 mph 1008.9mb 63f 63f
12:50am 7ft 9s 7s 9 11 mph 1009mb 63f 62f
Sat 07/23 11:50pm 7.5ft 9s 7s 11 13 mph 1009.1mb 63f 62f
10:50pm 7ft 9s 7s 13 16 mph 1009.3mb 63f 62f
9:50pm 7ft 9s 7s 13 16 mph 1009.3mb 63f 63f
8:50pm 6.5ft 9s 6s 16 18 mph 1009.2mb 63f 63f
7:50pm 7ft 9s 6s 13 16 mph 1008.9mb 63f 63f
6:50pm 7.5ft 8s 7s 16 20 mph 1008.5mb 63f 63f
5:50pm 7.5ft 9s 6s 18 20 mph 1008.7mb 63f 63f
4:50pm 7.5ft 8s 6s 16 20 mph 1008.9mb 63f 64f
3:50pm 8.5ft 9s 7s 16 18 mph 1009.3mb 63f 64f
2:50pm 9ft 9s 7s 18 22 mph 1009.6mb 63f 64f
1:50pm 9ft 9s 7s 16 20 mph 1010mb 63f 64f
12:50pm 8.5ft 8s 7s 18 22 mph 1010mb 63f 63f
11:50am 9ft 9s 7s 18 22 mph 1010.1mb 63f 63f
10:50am 8ft 8s 7s 20 25 mph 1009.8mb 63f 63f
9:50am 7.5ft 15s 7s 16 20 mph 1010.6mb 63f 63f
8:50am 8ft 8s  -  20 25 mph 1009.6mb 63f 63f
7:50am 8ft 8s 7s 18 22 mph 1010.1mb 63f 63f
6:50am 8ft 9s 7s 18 20 mph 1009.9mb 63f 63f
5:50am 9ft 8s 7s 16 20 mph 1009.6mb 63f 64f
4:50am 10ft 8s 7s 13 18 mph 1009.7mb 63f 64f
3:50am 10ft 8s 7s 16 22 mph 1009.5mb 63f 64f
2:50am 10ft 8s 7s 20 25 mph 1009.6mb 63f 65f
1:50am 10ft 8s 7s 25 31 mph 1009.7mb 63f 65f
12:50am 11ft 8s 7s 25 31 mph 1010.4mb 63f 65f
Fri 07/22 11:50pm 9ft 8s 6s 22 29 mph 1011mb 63f 66f
10:50pm 9.5ft 8s 7s 27 34 mph 1010.8mb 63f 66f
9:50pm 8ft 8s 6s 25 31 mph 1010.8mb 63f 66f
8:50pm 7.5ft 8s 6s 27 31 mph 1010.6mb 63f 66f
7:50pm 7ft 8s 6s 22 27 mph 1011.1mb 63f 65f
6:50pm 6.5ft 8s 6s 20 25 mph 1011.4mb 63f 65f
5:50pm 7ft 8s 6s 20 22 mph 1011.9mb 63f 64f
4:50pm 7ft 8s 6s 20 25 mph 1012.1mb 63f 64f
3:50pm 7.5ft 8s 6s 20 25 mph 1012.6mb 63f 64f
2:50pm 8.5ft 8s 7s 20 25 mph 1013.4mb 63f 64f
1:50pm 7.5ft 8s 6s 20 25 mph 1013.9mb 63f 64f
12:50pm 8.5ft 8s 7s 18 22 mph 1014.6mb 63f 64f
11:50am 8ft 8s 6s 22 27 mph 1014.6mb 63f 64f
10:50am 7ft 8s 6s 22 27 mph 1014.5mb 63f 64f
9:50am 6.5ft 8s 6s 22 27 mph 1014.4mb 63f 63f
8:50am 6.5ft 8s 6s 22 27 mph 1014.5mb 63f 63f
7:50am 6ft 8s 6s 22 27 mph 1014.3mb 62f 63f
6:50am 6.5ft 8s 6s 20 22 mph 1014.2mb 62f 63f
5:50am 7ft 8s 6s 20 25 mph 1013.4mb 62f 63f
4:50am 7ft 8s 6s 18 22 mph 1013.5mb 63f 63f
3:50am 7ft 8s 6s 20 25 mph 1013.5mb 63f 64f
2:50am 8ft 8s 6s 18 22 mph 1013.5mb 63f 64f
1:50am 7.5ft 7s 6s 20 25 mph 1013.7mb 63f 64f
12:50am 8ft 8s 6s 22 27 mph 1013.9mb 63f 64f
Thu 07/21 11:50pm 7.5ft 8s 6s 20 25 mph 1014.5mb 64f 64f
10:50pm 6.5ft 8s 6s 22 27 mph 1014.6mb 64f 64f
9:50pm 6ft 7s 6s 22 27 mph 1014.4mb 64f 64f
8:50pm 6ft 15s 6s 22 27 mph 1014.3mb 64f 64f
7:50pm 6ft 8s 5s 22 25 mph 1014.4mb 64f 64f
6:50pm 6ft 7s 5s 20 25 mph 1014.5mb 63f 63f
5:50pm 6ft 7s 6s 20 25 mph 1014.7mb 63f 63f
4:50pm 6.5ft 8s 6s 20 22 mph 1015mb 63f 62f
3:50pm 7ft 8s 6s 20 25 mph 1015mb 63f 62f
2:50pm 6ft 8s 6s 18 22 mph 1015.6mb 63f 62f
1:50pm 6.5ft 8s 6s 16 18 mph 1016mb 63f 62f
12:50pm 6.5ft 8s 6s 16 20 mph 1016.3mb 63f 62f
11:50am 6.5ft 8s 6s 16 20 mph 1016.2mb 63f 63f
10:50am 6ft 7s 6s 16 20 mph 1016mb 63f 63f
9:50am 6ft 7s 6s 18 20 mph 1015.6mb 63f 63f
8:50am 5.5ft 7s 5s 20 25 mph 1015mb 63f 63f
7:50am 5.5ft 7s 6s 20 25 mph 1014.8mb 63f 63f
6:50am 6ft 15s 6s 18 20 mph 1014.6mb 62f 63f
5:50am 6ft 7s 6s 18 22 mph 1014.3mb 62f 63f
4:50am 6ft 15s 6s 16 22 mph 1014.4mb 62f 63f
3:50am 6ft 7s 6s 18 22 mph 1014mb 63f 63f
2:50am 6.5ft 7s 6s 18 25 mph 1014.1mb 63f 63f
1:50am 6.5ft 7s 6s 18 22 mph 1014.3mb 63f 63f
12:50am 7ft 7s 6s 20 22 mph 1014.5mb 64f 63f
Wed 07/20 11:50pm 7.5ft 7s 6s 18 22 mph 1014.7mb 64f 63f
10:50pm 7ft 7s 6s 22 27 mph 1014.5mb 64f 63f
9:50pm 6ft 6s 6s 22 25 mph 1014.4mb 64f 63f
8:50pm 6ft 16s 6s 20 25 mph 1014.3mb 64f 63f
7:50pm 6ft 6s 5s 22 25 mph 1014.1mb 64f 63f
6:50pm 6ft 15s 5s 25 29 mph 1013.9mb 63f 63f
5:50pm 5.5ft 11s 5s 22 27 mph 1014.3mb 63f 63f
4:50pm 6ft 7s 6s 20 25 mph 1014.7mb 63f 63f
3:50pm 7ft 7s 6s 20 25 mph 1014.8mb 63f 62f
2:50pm 6.5ft 7s 6s 18 22 mph 1015.3mb 63f 62f